Regional Weather Roundup
Issued by NWS

Home | Current Version | Previous Version | Graphics & Text | Print | Product List | Glossary On
Versions: 1 2 3 4 5 6 7 8 9 10 11 12 13 14 15 16 17 18 19 20 21 22 23 24 25 26 27 28 29 30 31 32 33 34 35 36 37 38 39 40 41 42 43 44 45 46 47 48 49 50
000
ASUS43 KLMK 301002
RWRKY
KENTUCKY REGIONAL WEATHER ROUNDUP
NATIONAL WEATHER SERVICE LOUISVILLE KY
500 AM EST FRI JAN 30 2015

NOTE "FAIR" INDICATES FEW OR NO CLOUDS BELOW 12,000 FEET
WITH NO SIGNIFICANT WEATHER AND/OR OBSTRUCTIONS TO VISIBILITY.

KYZ001>023-026-027-061>063-070>075-301100-
WESTERN AND SOUTH CENTRAL KENTUCKY

CITY           SKY/WX    TMP DP  RH WIND       PRES   REMARKS
PADUCAH        CLOUDY    36  23  59 N17       30.44S WCI  26
HENDERSON      CLOUDY    34  25  69 NW7       30.42R WCI  28
OWENSBORO      CLOUDY    35  27  73 NW14      30.40R WCI  26
HOPKINSVILLE   CLOUDY    35  28  74 N10G20    30.41R WCI  27
BOWLING GREEN  CLOUDY    36  27  69 NW9       30.38R WCI  29
GLASGOW        NOT AVBL
$$

KYZ024-025-028>034-038-045-046-053-301100-
NORTH CENTRAL KENTUCKY

CITY           SKY/WX    TMP DP  RH WIND       PRES   REMARKS
LOUISVILLE/SDF CLOUDY    36  24  62 NW9G22    30.33R WCI  29
LOUISVILLE/LOU CLOUDY    36  26  67 NW6       30.33R WCI  31
FORT KNOX      CLOUDY    35  25  69 NW12      30.32R WCI  26
$$

KYZ035>037-039>044-047>052-055>060-089>105-301100-
NORTHEAST KENTUCKY

CITY           SKY/WX    TMP DP  RH WIND       PRES   REMARKS
LEXINGTON      CLOUDY    33  24  69 NW10      30.28R WCI  25
COVINGTON      CLOUDY    33  25  72 NW10G23   30.25R WCI  25
FRANKFORT      CLOUDY    33  27  78 W6        30.28R WCI  28
$$

KYZ054-064>069-076>088-106>120-301100-
SOUTHEAST KENTUCKY

CITY           SKY/WX    TMP DP  RH WIND       PRES   REMARKS
JACKSON        MIX PCPN  32  25  75 W7        30.23R WCI  26
LONDON         CLOUDY    34  24  67 NW8       30.27R WCI  27
SOMERSET       NOT AVBL
MIDDLESBORO    NOT AVBL
MONTICELLO     CLOUDY    35  29  79 NW9       30.33S WCI  28
$$




USA.gov is the U.S. government's official web portal to all federal, state and local government web resources and services.